Newport, AR

6:56 PM CDT on August 22, 2017 (GMT -0500)
Newport

Weather History for KM19 - February, 2013

Change the Weather History Date:

Monday, February 18, 2013

  Actual Average (KBVX) Record (KBVX)
Temperature  
Mean Temperature 49 °F -  
Max Temperature 55 °F 53 °F 68 °F (2016)
Min Temperature 43 °F 31 °F 19 °F (2015)
Degree Days  
Heating Degree Days 16    
Moisture  
Dew Point 46 °F    
Average Humidity 84    
Maximum Humidity 94    
Minimum Humidity 71    
Precipitation  
Precipitation 0.32 in - - ()
Sea Level Pressure  
Sea Level Pressure 29.86 in    
Wind  
Wind Speed 19 mph (SSW)    
Max Wind Speed 30 mph    
Max Gust Speed 38 mph    
Visibility 10 miles    
Events Rain , Thunderstorm    
Averages and records for this station are not official NWS values.
T = Trace of Precipitation, MM = Missing Value Source: NWS Daily Summary

Daily Weather History Graph

Daily Weather History Graph

Search for Another Location

Airport or City:

Trip Planner

Search our weather history database for the weather conditions in past years. The results will help you decide how hot, cold, wet, or windy it might be!

Date:

Astronomy

Feb. 18, 2013 Rise Set
Actual Time 6:47 AM CST 5:49 PM CST
Civil Twilight 6:21 AM CST 6:15 PM CST
Nautical Twilight 5:52 AM CST 6:45 PM CST
Astronomical Twilight 5:22 AM CST 7:15 PM CST
Moon 11:41 AM CST (2/18) 1:22 AM CST (2/18)
Length of Visible Light 11h 53m
Length of Day
11h 02m
First Quarter, 58% of the Moon is Illuminated
Feb 18
First Quarter
Feb 25
Full
Mar 4
Last Quarter
Mar 11
New
Mar 19
First Quarter

Hourly Weather History & Observations

Time (CST) Temp. Windchill Dew Point Humidity Pressure Visibility Wind Dir Wind Speed Gust Speed Precip Events Conditions
12:56 AM 45.0 °F 38.9 °F 37.9 °F 76% 30.01 in 10.0 mi SSE 12.7 mph - N/A   Clear
1:56 AM 45.0 °F 37.9 °F 39.9 °F 82% 30.01 in 10.0 mi South 16.1 mph - N/A   Clear
2:56 AM 46.9 °F - 41.9 °F 83% 30.01 in 10.0 mi South 18.4 mph - N/A   Clear
3:56 AM 47.8 °F - 41.9 °F 80% 29.99 in 10.0 mi South 20.7 mph - N/A   Clear
5:56 AM 47.8 °F - 43.0 °F 83% 29.99 in 10.0 mi South 20.7 mph - N/A   Clear
6:56 AM 46.9 °F - 43.0 °F 86% 30.00 in 10.0 mi SSE 19.6 mph - N/A   Overcast
7:56 AM 47.8 °F - 41.0 °F 77% 29.99 in 10.0 mi North - - N/A   Overcast
8:56 AM 50.0 °F - 41.9 °F 74% 29.95 in 10.0 mi SSE 27.6 mph 34.5 mph N/A   Mostly Cloudy
9:56 AM 50.9 °F - 43.0 °F 74% 29.94 in 10.0 mi South 27.6 mph - N/A   Mostly Cloudy
10:56 AM 48.9 °F - 45.9 °F 89% 29.92 in 6.0 mi South 28.8 mph 36.8 mph 0.01 in Rain Rain
11:56 AM 50.0 °F - 46.9 °F 89% 29.88 in 10.0 mi South 29.9 mph - 0.01 in   Overcast
12:24 PM 51.8 °F - 48.2 °F 88% 29.87 in 10.0 mi South 25.3 mph 36.8 mph 0.02 in Rain Light Rain
12:56 PM 50.0 °F - 47.8 °F 92% 29.85 in 10.0 mi South 21.9 mph 31.1 mph 0.03 in Rain Light Rain
1:56 PM 52.9 °F - 50.0 °F 90% 29.79 in 10.0 mi South 25.3 mph 32.2 mph 0.04 in Rain Light Rain
2:30 PM 55.4 °F - 51.8 °F 88% 29.76 in 10.0 mi South 24.2 mph 32.2 mph 0.00 in Rain Light Rain
2:56 PM 54.9 °F - 50.9 °F 86% 29.75 in 10.0 mi South 25.3 mph 32.2 mph 0.00 in   Mostly Cloudy
3:56 PM 54.9 °F - 50.9 °F 86% 29.73 in 10.0 mi South 25.3 mph 31.1 mph 0.00 in   Overcast
4:08 PM 55.4 °F - 51.8 °F 88% 29.72 in 10.0 mi South 19.6 mph 29.9 mph 0.00 in Rain , Thunderstorm Light Thunderstorms and Rain
4:49 PM 53.6 °F - 51.8 °F 94% 29.72 in 7.0 mi South 11.5 mph - 0.10 in Rain Rain
5:16 PM 55.4 °F - 53.6 °F 94% 29.71 in 10.0 mi South 17.3 mph 25.3 mph 0.06 in Rain , Thunderstorm Light Thunderstorms and Rain
5:34 PM 55.4 °F - 53.6 °F 94% 29.71 in 10.0 mi South 13.8 mph - 0.06 in Rain Light Rain
5:46 PM 55.4 °F - 53.6 °F 94% 29.74 in 10.0 mi SSW 13.8 mph - 0.06 in Rain , Thunderstorm Light Thunderstorms and Rain
5:56 PM 54.9 °F - 52.9 °F 93% 29.76 in 10.0 mi SW 10.4 mph 21.9 mph 0.07 in Rain , Thunderstorm Light Thunderstorms and Rain
6:18 PM 51.8 °F - 50.0 °F 94% 29.78 in 5.0 mi SW 18.4 mph 35.7 mph 0.13 in Rain , Thunderstorm Thunderstorms and Rain
6:31 PM 53.6 °F - 51.8 °F 94% 29.76 in 10.0 mi SSW 21.9 mph - 0.15 in Rain , Thunderstorm Light Thunderstorms and Rain
6:47 PM 53.6 °F - 48.2 °F 82% 29.75 in 10.0 mi SW 13.8 mph 24.2 mph 0.15 in Rain Light Rain
6:56 PM 52.9 °F - 48.9 °F 86% 29.75 in 10.0 mi SW 12.7 mph - 0.15 in Rain Light Rain
7:56 PM 52.0 °F - 48.9 °F 89% 29.80 in 10.0 mi West 13.8 mph - 0.00 in   Partly Cloudy
8:56 PM 47.8 °F - 41.0 °F 77% 29.88 in 10.0 mi WNW 25.3 mph 34.5 mph 0.01 in   Scattered Clouds
9:04 PM 46.4 °F 37.2 °F 39.2 °F 76% 29.89 in 10.0 mi NW 29.9 mph 38.0 mph N/A   Mostly Cloudy
9:56 PM 45.0 °F 38.9 °F 36.9 °F 73% 29.95 in 10.0 mi NW 12.7 mph 24.2 mph N/A   Mostly Cloudy
10:03 PM 44.6 °F 38.1 °F 35.6 °F 71% 29.95 in 10.0 mi NNW 13.8 mph - N/A   Mostly Cloudy
10:56 PM 43.0 °F 38.2 °F 36.0 °F 76% 29.98 in 10.0 mi NW 8.1 mph - N/A   Clear
11:56 PM 43.0 °F 34.8 °F 34.9 °F 73% 30.01 in 10.0 mi NW 18.4 mph 25.3 mph N/A   Mostly Cloudy